Preview of NWS' New Version of Forecast
This preview is not operational and should not be used for support decisions.

Regional Weather Roundup (RWR)

Issued by National Weather Service (NWS)

                            
000
ASUS43 KMKX 201300
RWRWI 

WISCONSIN REGIONAL WEATHER ROUNDUP
NATIONAL WEATHER SERVICE MILWAUKEE/SULLIVAN WI
800 AM CDT THU JUN 20 2019

NOTE: "FAIR" INDICATES FEW OR NO CLOUDS BELOW 12,000 FEET WITH NO
SIGNIFICANT WEATHER AND/OR OBSTRUCTIONS TO VISIBILITY.

WIZ001-002-006>008-014>016-023>028-201400-
NORTHWEST WISCONSIN
  
CITY           SKY/WX    TMP DP  RH WIND       PRES   REMARKS
SUPERIOR ARPT  FAIR      54  49  83 CALM      29.86S                  
ASHLAND        FAIR      52  52 100 CALM      29.87S                  
HAYWARD        FAIR      54  49  83 NE5       29.84F                  
SIREN          FAIR      58  49  72 E3        29.83S                  
CUMBERLAND     FAIR      59  43  55 E8        29.83S                  
RICE LAKE      FAIR      60  46  59 E7        29.83F                  
CHETEK         FAIR      60  46  59 E5        29.83S                  
LADYSMITH      FAIR      55  47  74 E3        29.85F                  
EAU CLAIRE     NOT AVBL                                               
MENOMONIE      FAIR      57  45  64 E7        29.82R                  
NEW RICHMOND   FAIR      61  45  56 E8        29.82R                  
OSCEOLA        FAIR      64  46  51 SE12      29.84R                  
$$
 
WIZ003>005-009-010-017-018-201400-
NORTH CENTRAL WISCONSIN
  
CITY           SKY/WX    TMP DP  RH WIND       PRES   REMARKS
MANITOWISH WTR FAIR      56  45  66 NE6       29.86S                  
ARBOR VITAE    FAIR      57  48  72 NE5       29.85S                  
WOODRUFF       FAIR      57  48  72 NE5       29.85S                  
RHINELANDER    FAIR      57  46  66 NE5       29.84F                  
EAGLE RIVER    FAIR      55  46  69 NE3       29.84S                  
LAND O LAKES   FAIR      56  44  63 NE5       29.87S                  
PHILLIPS       FAIR      53  49  86 E3        29.84S                  
TOMAHAWK       FAIR      53  47  81 CALM      29.84S                  
MEDFORD        FAIR      54  46  74 NE7       29.81F                  
MERRILL        FAIR      57  48  71 CALM      29.83S                  
$$
 
WIZ029-030-035-036-043>047-201400-
CENTRAL WISCONSIN
  
CITY           SKY/WX    TMP DP  RH WIND       PRES   REMARKS
WAUSAU         FAIR      59  45  59 N3        29.80S                  
MOSINEE        NOT AVBL                                               
MARSHFIELD     FAIR      56  45  66 NE9       29.79F                  
STEVENS POINT  FAIR      54  46  73 N6        29.81S                  
WAUPACA        FAIR      60  48  64 N3        29.79R                  
WAUTOMA        FAIR      58  48  69 N13       29.78S                  
WISC RAPIDS    FAIR      59  46  62 NE10      29.80S                  
CAMP DOUGLAS   MOSUNNY   59  55  88 CALM      29.79F                  
$$
 
WIZ011>013-019>022-031-037>040-048>050-201400-
NORTHEAST WISCONSIN
  
CITY           SKY/WX    TMP DP  RH WIND       PRES   REMARKS
ANTIGO         FAIR      55  47  74 NE8       29.82S                  
SHAWANO        FAIR      61  48  62 NE7       29.79R                  
OCONTO         PTSUNNY   56  48  73 N5        29.78R                  
STURGEON BAY   FAIR      57  52  83 N8        29.78R                  
GREEN BAY      FAIR      57  49  74 N13       29.77R                  
MANITOWOC      CLOUDY    58  49  72 N9        29.76R                  
APPLETON       MOSUNNY   57  45  62 N9        29.76R                  
CLINTONVILLE   PTSUNNY   59  46  61 NE8       29.78S                  
OSHKOSH        PTSUNNY   59  50  72 N10       29.76R                  
$$
 
WIZ032>034-041-042-053>061-201400-
SOUTHWEST WISCONSIN
  
CITY           SKY/WX    TMP DP  RH WIND       PRES   REMARKS
LA CROSSE      FAIR      65  51  60 E5        29.79R                  
SPARTA         FAIR      58  50  74 CALM      29.80S                  
VIROQUA        FAIR      60  55  85 NE8       29.79R                  
BOSCOBEL       FAIR      62  56  80 VRB3      29.77S                  
PRAIRIE DU CHI FAIR      63  55  73 N5        29.77S                  
PLATTEVILLE    FAIR      61  59  94 N12       29.75F                  
$$

WIZ056-057-062-063-064-067-068-201400-
SOUTH CENTRAL WISCONSIN
  
CITY           SKY/WX    TMP DP  RH WIND       PRES   REMARKS
REEDSBURG      FAIR      59  51  74 N5        29.78R                  
BARABOO/DELLS  FAIR      56  51  82 N3        29.77S                  
LONE ROCK      NOT AVBL                                               
MINERAL POINT  FAIR      61  61 100 N8        29.76F                  
MADISON        PTSUNNY   61  54  77 N12       29.74S                  
MIDDLETON      FAIR      60  54  80 N9        29.75S                  
WATERTOWN      CLOUDY    59  53  82 N12       29.74R                  
MONROE         FAIR      59  56  88 N12G17    29.73S                  
JANESVILLE     MOSUNNY   61  54  77 N10       29.71S                  
$$
 
WIZ051-052-058>065-066-070>072-201400-
SOUTHEAST WISCONSIN
  
CITY           SKY/WX    TMP DP  RH WIND       PRES   REMARKS
MILWAUKEE      DRIZZLE   57  55  93 N9        29.70R FOG              
WAUKESHA       CLOUDY    54  54 100 N7        29.73S FOG              
MILWAUKEE/TIMM DRIZZLE   54  52  94 N10       29.73R                  
RACINE         LGT RAIN  54  52  93 N15G25    29.72R FOG              
KENOSHA        LGT RAIN  58  57  97 N8        29.69S FOG              
FOND DU LAC    CLOUDY    62  52  69 N10       29.76R                  
SHEBOYGAN      CLOUDY    58  50  75 N8        29.74R                  
WEST BEND      CLOUDY    54  54 100 N3        29.73S                  
JUNEAU         CLOUDY    58  51  77 N9        29.76R                  
$$

LSZ147-162-201400-
LAKE SUPERIOR
  
STATION/POSITION TIME  TEMP    WIND        PRES    WAVE
                       AIR SEA DIR/SP/G            HT/PER
                 (UTC) (F)     (DEG/KT/KT) (MB)    (FT/S)
W MID LAKE BUOY  1150   43 38  330/  6/  8 1011.4R   0
$$
 
LMZ867-665-643>646-201400-
LAKE MICHIGAN
  
STATION/POSITION TIME  TEMP    WIND        PRES    WAVE
                       AIR SEA DIR/SP/G            HT/PER
                 (UTC) (F)     (DEG/KT/KT) (MB)    (FT/S)
N MID LAKE BUOY  1240   45 39   10/ 12/ 14 1007.8S
NORTHPORT PIER   1240   57     300/  3/  5 1008.1R
KEWAUNEE LAKESHO 1230   58      20/  5/ 11 1006.9R
SHEBOYGAN LAKESH 1200   53      10/ 16/ 18 1006.5R
MILWAUKEE LAKESH 1220   55     350/ 13/ 19   N/A
S MID LAKE BUOY  1240   48 47  350/ 10/ 14 1004.8R
KENOSHA   LAKESH 1200   56     340/ 13/ 15 1005.4
$$

TC  - TEMPERATURE IN CELSIUS
VSB - VISIBILITY IN STATUTE MILES
WCI - WIND CHILL INDEX
HX  - HEAT INDEX